Location: Kellogg
(38.0159°N, 90.0546°W)
Time: 22:47:09
(UTC+00:00)

Vanguard 1 - Pass Details

Date: 15 September 2024
Orbit: 648 x 3825 km, 34.3° (Epoch: 12 October)

Event Time Altitude Azimuth Distance (km) Brightness Sun altitude
Rises 15:06:06 0° 203° (SSW) 7,612 14.7 37.7°
Reaches altitude 10° 15:13:37 10° 190° (S) 6,143 14.5 38.9°
Maximum altitude 15:25:16 21° 150° (SSE) 4,260 14.6 40.8°
Drops below altitude 10° 15:33:29 10° 106° (ESE) 4,230 14.3 42.1°
Sets 15:37:15 0° 91° (E) 4,765 14.1 42.6°
